Weather History for Grand Junction, CO

Change the Weather History Date:

Monday, November 25, 2013

  Actual Average Record
Temperature  
Mean Temperature 37 °F 34 °F  
Max Temperature 46 °F 45 °F 65 °F (1933)
Min Temperature 28 °F 24 °F 3 °F (1931)
Degree Days  
Heating Degree Days 28 31  
Month to date heating degree days 619 619  
Since 1 July heating degree days 1189 1067  
Cooling Degree Days 0 0  
Month to date cooling degree days 0 0  
Year to date cooling degree days 1269 1125  
Moisture  
Dew Point 30 °F    
Average Humidity 77    
Maximum Humidity 100    
Minimum Humidity 53    
Precipitation  
Precipitation 0.00 in 0.03 in 0.65 in (1893)
Month to date precipitation 1.05 0.63  
Year to date precipitation 11.47 8.73  
Snow  
Snow 0.00 in 0.10 in 2.20 in (1965)
Month to date snowfall 4.7 1.5  
Since 1 July snowfall 4.8 1.9  
Since 1 September snowfall 4.8 1.9  
Snow Depth T in    
Sea Level Pressure  
Sea Level Pressure 30.26 in    
Wind  
Wind Speed 6 mph (ENE)    
Max Wind Speed 13 mph    
Max Gust Speed 14 mph    
Visibility 6 miles    
Events Fog    
T = Trace of Precipitation, MM = Missing Value Source: NWS Daily Summary

Daily Weather History Graph

Daily Weather History Graph

Search for Another Location

Airport:

Trip Planner

Search our weather history database for the weather conditions in past years. The results will help you decide how hot, cold, wet, or windy it might be!

Date:

Astronomy

Nov. 25, 2013 Rise Set
Actual Time 7:08 AM MST 4:53 PM MST
Civil Twilight 6:39 AM MST 5:22 PM MST
Nautical Twilight 6:06 AM MST 5:55 PM MST
Astronomical Twilight 5:34 AM MST 6:27 PM MST
Moon No Moon Rise 12:28 PM MST (11/25)
Length of Visible Light 10h 43m
Length of Day
9h 45m
Waning Gibbous, 50% of the Moon is Illuminated
Nov 25
Waning Gibbous
Nov 25
Last Quarter
Dec 2
New
Dec 9
First Quarter
Dec 17
Full

Hourly Weather History & Observations

Time (MST) Temp. Windchill Dew Point Humidity Pressure Visibility Wind Dir Wind Speed Gust Speed Precip Events Conditions
12:37 AM 33.8 °F 27.7 °F 33.8 °F 100% 30.12 in 10.0 mi NNW 6.9 mph - N/A   Overcast
12:53 AM 34.0 °F 28.0 °F 32.0 °F 92% 30.13 in 10.0 mi North 6.9 mph - N/A   Overcast
1:53 AM 32.0 °F 23.0 °F 30.9 °F 96% 30.16 in 10.0 mi NNW 11.5 mph - N/A   Scattered Clouds
2:53 AM 30.9 °F 21.7 °F 30.0 °F 96% 30.17 in 10.0 mi NNW 11.5 mph - N/A   Clear
3:53 AM 32.0 °F 24.8 °F 30.9 °F 96% 30.17 in 10.0 mi North 8.1 mph - N/A   Clear
4:53 AM 32.0 °F - 30.0 °F 92% 30.19 in 10.0 mi Calm Calm - N/A   Clear
5:53 AM 28.9 °F 23.9 °F 28.0 °F 96% 30.21 in 7.0 mi West 4.6 mph - N/A   Clear
5:56 AM 28.4 °F - 28.4 °F 100% 30.18 in 2.0 mi Calm Calm - N/A   Partly Cloudy
6:03 AM 28.4 °F - 28.4 °F 100% 30.18 in 0.5 mi Calm Calm - N/A Fog Light Freezing Fog
6:11 AM 28.4 °F - 28.4 °F 100% 30.18 in 0.5 mi Calm Calm - N/A Fog Light Freezing Fog
6:18 AM 28.4 °F - 28.4 °F 100% 30.19 in 0.2 mi Calm Calm - N/A Fog Light Freezing Fog
6:44 AM 28.4 °F 23.3 °F 28.4 °F 100% 30.20 in 0.2 mi WNW 4.6 mph - N/A Fog Light Freezing Fog
6:53 AM 28.9 °F 25.2 °F 28.9 °F 100% 30.24 in 0.2 mi NW 3.5 mph - N/A Fog Light Freezing Fog
7:04 AM 28.4 °F - 28.4 °F 100% 30.20 in 0.2 mi Calm Calm - N/A Fog Light Freezing Fog
7:22 AM 28.4 °F 22.2 °F 28.4 °F 100% 30.21 in 0.2 mi NW 5.8 mph - N/A Fog Light Freezing Fog
7:30 AM 28.4 °F 22.2 °F 28.4 °F 100% 30.21 in 0.1 mi NNW 5.8 mph - N/A Fog Light Freezing Fog
7:37 AM 28.4 °F 21.2 °F 28.4 °F 100% 30.22 in 0.1 mi NW 6.9 mph - N/A Fog Light Freezing Fog
7:53 AM 28.9 °F 23.9 °F 28.9 °F 100% 30.26 in 0.1 mi NW 4.6 mph - N/A Fog Light Freezing Fog
8:51 AM 28.4 °F - 28.4 °F 100% 30.24 in 0.1 mi Calm Calm - N/A Fog Light Freezing Fog
8:53 AM 28.9 °F - 28.9 °F 100% 30.27 in 0.1 mi Calm Calm - N/A Fog Light Freezing Fog
9:53 AM 28.9 °F - 28.9 °F 100% 30.30 in 0.1 mi Calm Calm - N/A Fog Light Freezing Fog
10:43 AM 30.2 °F 24.3 °F 30.2 °F 100% 30.28 in 1.0 mi SE 5.8 mph - N/A   Overcast
10:53 AM 30.9 °F 27.5 °F 30.9 °F 100% 30.32 in 1.0 mi ESE 3.5 mph - N/A   Overcast
11:04 AM 30.2 °F 25.4 °F 30.2 °F 100% 30.28 in 3.0 mi ESE 4.6 mph - N/A   Overcast
11:43 AM 35.6 °F 32.8 °F 33.8 °F 93% 30.27 in 8.0 mi SE 3.5 mph - N/A   Scattered Clouds
11:53 AM 36.0 °F 32.1 °F 33.1 °F 89% 30.28 in 9.0 mi SE 4.6 mph - N/A   Partly Cloudy
12:53 PM 43.0 °F 39.5 °F 30.9 °F 62% 30.25 in 10.0 mi ESE 5.8 mph - N/A   Partly Cloudy
1:53 PM 44.1 °F - 28.9 °F 55% 30.24 in 10.0 mi Calm Calm - N/A   Partly Cloudy
2:53 PM 45.0 °F 43.5 °F 30.0 °F 56% 30.25 in 10.0 mi Variable 3.5 mph - N/A   Clear
3:53 PM 45.0 °F 43.5 °F 28.9 °F 53% 30.25 in 10.0 mi ENE 3.5 mph - N/A   Clear
4:53 PM 39.9 °F 35.1 °F 33.1 °F 77% 30.28 in 10.0 mi ESE 6.9 mph - N/A   Clear
5:53 PM 37.0 °F 29.8 °F 30.9 °F 79% 30.32 in 10.0 mi SE 10.4 mph - N/A   Clear
6:53 PM 35.1 °F 27.9 °F 30.0 °F 82% 30.35 in 10.0 mi ESE 9.2 mph - N/A   Clear
7:53 PM 34.0 °F 26.6 °F 28.9 °F 82% 30.36 in 10.0 mi ESE 9.2 mph - N/A   Clear
8:53 PM 34.0 °F 26.6 °F 28.9 °F 82% 30.38 in 10.0 mi ESE 9.2 mph - N/A   Clear
9:53 PM 34.0 °F 27.2 °F 28.9 °F 82% 30.40 in 10.0 mi ESE 8.1 mph - N/A   Clear
10:53 PM 33.1 °F 25.5 °F 28.9 °F 85% 30.41 in 10.0 mi ESE 9.2 mph - N/A   Clear
11:53 PM 33.1 °F 26.1 °F 28.0 °F 82% 30.40 in 10.0 mi East 8.1 mph - N/A   Clear